When you browse on this site, cookies collect data to enhance your experience and personalize the content and advertising you see.
Visit our Privacy Policy to learn more. By continuing to use the site, you agree to this use of cookies and data.
  • In Belgien
  • Länderverzeichnis
  • Für 7 Tage
  • Wassertemperatur
  • Wetterkarte
  • Widgets
  • user-avatar
    Anmelden

    Stündliche Wetter Orscha

    Heute, 7 Juni, Sonntag

    Zeit Temperatur Niederschläge Wind Luftdruck Luftfeuchtigkeit
    00:00 +15°C° 0 mm 1 m/S 743 mmHg 88%
    01:00 +14°C° 0 mm 1 m/S 743 mmHg 88%
    02:00 +13°C° 0 mm 0 m/S 744 mmHg 89%
    03:00 +14°C° 0 mm 1 m/S 744 mmHg 88%
    04:00 +15°C° 0 mm 1 m/S 744 mmHg 88%
    05:00 +15°C° 0 mm 1 m/S 744 mmHg 88%
    06:00 +18°C° 0 mm 1 m/S 745 mmHg 85%
    07:00 +19°C° 0 mm 2 m/S 745 mmHg 82%
    08:00 +21°C° 0 mm 2 m/S 745 mmHg 80%
    09:00 +23°C° 0 mm 2 m/S 745 mmHg 77%
    10:00 +24°C° 0 mm 3 m/S 745 mmHg 74%
    11:00 +25°C° 0 mm 3 m/S 745 mmHg 72%
    12:00 +25°C° 0.1 mm 3 m/S 745 mmHg 71%
    13:00 +25°C° 0.1 mm 4 m/S 745 mmHg 71%
    14:00 +26°C° 0.1 mm 4 m/S 745 mmHg 71%
    15:00 +26°C° 0.5 mm 4 m/S 745 mmHg 74%
    16:00 +25°C° 0.5 mm 4 m/S 744 mmHg 78%
    17:00 +25°C° 0.5 mm 3 m/S 744 mmHg 81%
    18:00 +24°C° 0.1 mm 3 m/S 744 mmHg 84%
    19:00 +22°C° 0.1 mm 3 m/S 744 mmHg 87%
    20:00 +21°C° 0.1 mm 3 m/S 744 mmHg 90%
    21:00 +20°C° 0.2 mm 3 m/S 744 mmHg 91%
    22:00 +20°C° 0.2 mm 3 m/S 744 mmHg 92%
    23:00 +19°C° 0.2 mm 3 m/S 744 mmHg 92%

    Morgen, 8 Juni, Montag

    Zeit Temperatur Niederschläge Wind Luftdruck Luftfeuchtigkeit
    00:00 +18°C° 0 mm 3 m/S 744 mmHg 93%
    01:00 +18°C° 0 mm 3 m/S 744 mmHg 93%
    02:00 +17°C° 0 mm 3 m/S 744 mmHg 93%
    03:00 +17°C° 0 mm 3 m/S 744 mmHg 94%
    04:00 +17°C° 0 mm 3 m/S 744 mmHg 95%
    05:00 +18°C° 0 mm 3 m/S 743 mmHg 95%
    06:00 +19°C° 0 mm 4 m/S 744 mmHg 92%
    07:00 +20°C° 0 mm 4 m/S 744 mmHg 89%
    08:00 +22°C° 0 mm 4 m/S 744 mmHg 86%
    09:00 +23°C° 0 mm 4 m/S 744 mmHg 82%
    10:00 +25°C° 0 mm 5 m/S 744 mmHg 78%
    11:00 +26°C° 0 mm 5 m/S 745 mmHg 74%
    12:00 +27°C° 0 mm 5 m/S 744 mmHg 72%
    13:00 +27°C° 0 mm 4 m/S 744 mmHg 70%
    14:00 +27°C° 0 mm 4 m/S 744 mmHg 68%
    15:00 +27°C° 0 mm 4 m/S 744 mmHg 70%
    16:00 +27°C° 0 mm 4 m/S 744 mmHg 72%
    17:00 +27°C° 0 mm 3 m/S 744 mmHg 75%
    18:00 +25°C° 0 mm 3 m/S 744 mmHg 78%
    19:00 +24°C° 0 mm 3 m/S 743 mmHg 82%
    20:00 +21°C° 0 mm 2 m/S 743 mmHg 86%
    21:00 +20°C° 0 mm 2 m/S 744 mmHg 88%
    22:00 +20°C° 0 mm 3 m/S 744 mmHg 90%
    23:00 +19°C° 0 mm 3 m/S 744 mmHg 92%

    übermorgen, 9 Juni, Dienstag

    Zeit Temperatur Niederschläge Wind Luftdruck Luftfeuchtigkeit
    00:00 +19°C° 0 mm 3 m/S 744 mmHg 93%
    01:00 +18°C° 0 mm 2 m/S 744 mmHg 93%
    02:00 +18°C° 0 mm 2 m/S 744 mmHg 94%
    03:00 +18°C° 0 mm 2 m/S 744 mmHg 94%
    04:00 +18°C° 0 mm 2 m/S 744 mmHg 94%
    05:00 +18°C° 0 mm 2 m/S 744 mmHg 94%
    06:00 +20°C° 0 mm 3 m/S 745 mmHg 91%
    07:00 +21°C° 0 mm 3 m/S 745 mmHg 87%
    08:00 +24°C° 0 mm 3 m/S 745 mmHg 84%
    09:00 +25°C° 0 mm 4 m/S 745 mmHg 79%
    10:00 +26°C° 0 mm 4 m/S 745 mmHg 75%
    11:00 +27°C° 0 mm 4 m/S 745 mmHg 71%
    12:00 +27°C° 0 mm 4 m/S 745 mmHg 69%
    13:00 +28°C° 0 mm 4 m/S 745 mmHg 67%
    14:00 +28°C° 0 mm 3 m/S 745 mmHg 66%
    15:00 +28°C° 0 mm 3 m/S 745 mmHg 68%
    16:00 +28°C° 0 mm 3 m/S 745 mmHg 70%
    17:00 +28°C° 0 mm 2 m/S 745 mmHg 72%
    18:00 +26°C° 0.1 mm 2 m/S 745 mmHg 76%
    19:00 +25°C° 0.1 mm 2 m/S 745 mmHg 80%
    20:00 +23°C° 0.1 mm 2 m/S 745 mmHg 84%
    21:00 +21°C° 0 mm 2 m/S 745 mmHg 86%
    22:00 +21°C° 0 mm 2 m/S 745 mmHg 88%
    23:00 +20°C° 0 mm 2 m/S 745 mmHg 90%

    10 Juni, Mittwoch

    Zeit Temperatur Niederschläge Wind Luftdruck Luftfeuchtigkeit
    00:00 +19°C° 0 mm 3 m/S 745 mmHg 91%
    01:00 +19°C° 0 mm 3 m/S 745 mmHg 92%
    02:00 +19°C° 0 mm 3 m/S 745 mmHg 93%
    03:00 +19°C° 0 mm 3 m/S 745 mmHg 93%
    04:00 +19°C° 0 mm 3 m/S 745 mmHg 93%
    05:00 +19°C° 0 mm 3 m/S 745 mmHg 93%
    06:00 +21°C° 0 mm 3 m/S 745 mmHg 90%
    07:00 +22°C° 0 mm 3 m/S 745 mmHg 86%
    08:00 +25°C° 0 mm 4 m/S 745 mmHg 83%
    09:00 +26°C° 0 mm 4 m/S 745 mmHg 79%
    10:00 +27°C° 0 mm 4 m/S 745 mmHg 75%
    11:00 +28°C° 0 mm 5 m/S 745 mmHg 72%
    12:00 +28°C° 0 mm 5 m/S 745 mmHg 70%
    13:00 +29°C° 0 mm 5 m/S 745 mmHg 68%
    14:00 +29°C° 0 mm 5 m/S 744 mmHg 67%
    15:00 +29°C° 0 mm 5 m/S 744 mmHg 70%
    16:00 +29°C° 0 mm 4 m/S 744 mmHg 73%
    17:00 +28°C° 0 mm 4 m/S 744 mmHg 76%
    18:00 +27°C° 0.1 mm 4 m/S 744 mmHg 80%
    19:00 +26°C° 0.1 mm 3 m/S 744 mmHg 83%
    20:00 +24°C° 0.1 mm 3 m/S 744 mmHg 87%
    21:00 +22°C° 0 mm 3 m/S 744 mmHg 89%
    22:00 +21°C° 0 mm 3 m/S 744 mmHg 90%
    23:00 +21°C° 0 mm 3 m/S 744 mmHg 92%

    11 Juni, Donnerstag

    Zeit Temperatur Niederschläge Wind Luftdruck Luftfeuchtigkeit
    00:00 +20°C° 0 mm 3 m/S 744 mmHg 93%
    01:00 +20°C° 0 mm 3 m/S 744 mmHg 94%
    02:00 +19°C° 0 mm 3 m/S 744 mmHg 95%
    03:00 +19°C° 0 mm 3 m/S 744 mmHg 95%
    04:00 +20°C° 0 mm 3 m/S 744 mmHg 95%
    05:00 +20°C° 0 mm 3 m/S 744 mmHg 95%
    06:00 +21°C° 0 mm 3 m/S 744 mmHg 92%
    07:00 +22°C° 0 mm 3 m/S 744 mmHg 88%
    08:00 +25°C° 0 mm 4 m/S 744 mmHg 85%
    09:00 +26°C° 0.1 mm 4 m/S 744 mmHg 80%
    10:00 +27°C° 0.1 mm 4 m/S 744 mmHg 75%
    11:00 +28°C° 0.1 mm 4 m/S 744 mmHg 70%
    12:00 +29°C° 0.3 mm 4 m/S 744 mmHg 69%
    13:00 +29°C° 0.3 mm 4 m/S 744 mmHg 69%
    14:00 +29°C° 0.3 mm 4 m/S 744 mmHg 69%
    15:00 +29°C° 0.1 mm 3 m/S 744 mmHg 71%
    16:00 +28°C° 0.1 mm 3 m/S 743 mmHg 74%
    17:00 +28°C° 0.1 mm 3 m/S 743 mmHg 77%
    18:00 +27°C° 0.1 mm 3 m/S 743 mmHg 80%
    19:00 +25°C° 0.1 mm 2 m/S 743 mmHg 83%
    20:00 +24°C° 0.1 mm 2 m/S 743 mmHg 87%
    21:00 +23°C° 0 mm 2 m/S 743 mmHg 88%
    22:00 +23°C° 0 mm 2 m/S 743 mmHg 90%
    23:00 +21°C° 0 mm 2 m/S 743 mmHg 91%

    12 Juni, Freitag

    Zeit Temperatur Niederschläge Wind Luftdruck Luftfeuchtigkeit
    00:00 +20°C° 0 mm 2 m/S 743 mmHg 92%
    01:00 +20°C° 0 mm 2 m/S 743 mmHg 93%
    02:00 +20°C° 0 mm 2 m/S 743 mmHg 94%
    03:00 +20°C° 0 mm 2 m/S 743 mmHg 94%
    04:00 +20°C° 0 mm 2 m/S 743 mmHg 94%
    05:00 +20°C° 0 mm 2 m/S 743 mmHg 94%
    06:00 +21°C° 0 mm 2 m/S 743 mmHg 90%
    07:00 +24°C° 0 mm 2 m/S 743 mmHg 86%
    08:00 +25°C° 0 mm 2 m/S 743 mmHg 82%
    09:00 +26°C° 0 mm 3 m/S 743 mmHg 78%
    10:00 +27°C° 0 mm 3 m/S 743 mmHg 75%
    11:00 +28°C° 0 mm 3 m/S 743 mmHg 71%
    12:00 +29°C° 0.1 mm 3 m/S 743 mmHg 69%
    13:00 +29°C° 0.1 mm 3 m/S 742 mmHg 68%
    14:00 +30°C° 0.1 mm 3 m/S 742 mmHg 66%
    15:00 +29°C° 0.5 mm 3 m/S 742 mmHg 69%
    16:00 +29°C° 0.5 mm 2 m/S 742 mmHg 71%
    17:00 +29°C° 0.5 mm 2 m/S 742 mmHg 74%
    18:00 +27°C° 0.1 mm 2 m/S 742 mmHg 77%
    19:00 +26°C° 0.1 mm 2 m/S 742 mmHg 79%
    20:00 +25°C° 0.1 mm 2 m/S 742 mmHg 82%
    21:00 +24°C° 0.1 mm 2 m/S 742 mmHg 84%
    22:00 +23°C° 0.1 mm 2 m/S 742 mmHg 86%
    23:00 +21°C° 0.1 mm 2 m/S 742 mmHg 88%
    Mehr zeigen